SXNGA LGAV-LGMK

Flight info

Callsign SXNGA
Flight time 0h 26m
Altitude 3000
Route LOFISKOS PERATI ABEAM/KEA YIAROS NISSOS TINOS RINIA DILLOS
Aircraft BE58/L-V/N

Departure

Time 2026-05-08 17:09
Airport Athens Eleftherios Venizelos International Airport (LGAV)

Arrival

Time 2026-05-08 17:35
Airport Mykonos Island National Airport (LGMK)
Time Latitude Longitude Altitude Speed Heading
2026-05-08 16:57 37.95046 23.96201 297 ft 0 kts 39°
2026-05-08 17:02 37.95049 23.96230 299 ft 3 kts 128°
2026-05-08 17:03 37.95042 23.96238 310 ft 6 kts 151°
2026-05-08 17:03 37.94982 23.96302 296 ft 15 kts 125°
2026-05-08 17:03 37.95013 23.96391 297 ft 11 kts 69°
2026-05-08 17:04 37.95041 23.96459 297 ft 8 kts 39°
2026-05-08 17:04 37.95094 23.96511 297 ft 11 kts 36°
2026-05-08 17:04 37.95164 23.96576 297 ft 14 kts 36°
2026-05-08 17:04 37.95231 23.96668 296 ft 15 kts 89°
2026-05-08 17:05 37.95217 23.96757 297 ft 10 kts 64°
2026-05-08 17:05 37.95268 23.96815 300 ft 12 kts 37°
2026-05-08 17:05 37.95289 23.96914 299 ft 15 kts 127°
2026-05-08 17:05 37.95223 23.97012 304 ft 13 kts 149°
2026-05-08 17:06 37.95163 23.96996 304 ft 5 kts 213°
2026-05-08 17:06 37.95159 23.96992 304 ft 0 kts 215°
2026-05-08 17:08 37.95157 23.96991 304 ft 2 kts 216°
2026-05-08 17:08 37.94967 23.96809 303 ft 82 kts 217°
2026-05-08 17:08 37.94583 23.96441 350 ft 121 kts 219°
2026-05-08 17:08 37.93797 23.95852 720 ft 140 kts 195°
2026-05-08 17:09 37.92532 23.96285 1157 ft 156 kts 147°
2026-05-08 17:09 37.91945 23.96842 1342 ft 163 kts 144°
2026-05-08 17:09 37.91180 23.97934 1517 ft 167 kts 127°
2026-05-08 17:09 37.90563 23.99148 1541 ft 160 kts 123°
2026-05-08 17:10 37.90455 24.00541 1513 ft 163 kts 87°
2026-05-08 17:10 37.90590 24.01962 1515 ft 162 kts 83°
2026-05-08 17:10 37.90675 24.03376 1483 ft 156 kts 104°
2026-05-08 17:10 37.90265 24.04576 1548 ft 149 kts 125°
2026-05-08 17:11 37.89851 24.05762 1654 ft 147 kts 114°
2026-05-08 17:11 37.89532 24.07001 1714 ft 148 kts 114°
2026-05-08 17:11 37.89179 24.08261 1790 ft 156 kts 116°
2026-05-08 17:11 37.88793 24.09552 1956 ft 156 kts 117°
2026-05-08 17:12 37.88383 24.10825 2109 ft 156 kts 120°
2026-05-08 17:12 37.87988 24.12099 2358 ft 153 kts 117°
2026-05-08 17:12 37.87591 24.13347 2475 ft 159 kts 119°
2026-05-08 17:12 37.87141 24.14650 2601 ft 160 kts 120°
2026-05-08 17:13 37.86694 24.15920 2812 ft 157 kts 120°
2026-05-08 17:13 37.86268 24.17188 2930 ft 160 kts 118°
2026-05-08 17:13 37.85838 24.18514 2984 ft 165 kts 118°
2026-05-08 17:13 37.85399 24.19885 3006 ft 169 kts 118°
2026-05-08 17:14 37.84961 24.21275 3023 ft 173 kts 117°
2026-05-08 17:14 37.84513 24.22704 3023 ft 176 kts 117°
2026-05-08 17:14 37.84050 24.24168 3024 ft 185 kts 117°
2026-05-08 17:14 37.83561 24.25710 3027 ft 190 kts 117°
2026-05-08 17:15 37.83069 24.27257 3019 ft 193 kts 117°
2026-05-08 17:15 37.82564 24.28858 3021 ft 194 kts 117°
2026-05-08 17:15 37.82078 24.30415 3139 ft 190 kts 117°
2026-05-08 17:15 37.81600 24.31961 3261 ft 187 kts 117°
2026-05-08 17:16 37.81123 24.33484 3390 ft 185 kts 117°
2026-05-08 17:16 37.80639 24.34985 3509 ft 188 kts 118°
2026-05-08 17:16 37.80127 24.36531 3633 ft 191 kts 118°
2026-05-08 17:16 37.79609 24.38085 3822 ft 189 kts 118°
2026-05-08 17:17 37.79106 24.39592 4064 ft 186 kts 118°
2026-05-08 17:17 37.78601 24.41090 4312 ft 184 kts 118°
2026-05-08 17:17 37.78096 24.42571 4563 ft 182 kts 118°
2026-05-08 17:17 37.77599 24.44024 4797 ft 182 kts 118°
2026-05-08 17:18 37.77084 24.45516 4918 ft 187 kts 118°
2026-05-08 17:18 37.76555 24.47026 4969 ft 192 kts 118°
2026-05-08 17:18 37.76002 24.48597 4995 ft 197 kts 118°
2026-05-08 17:18 37.75435 24.50196 5008 ft 200 kts 118°
2026-05-08 17:19 37.74862 24.51807 5012 ft 202 kts 118°
2026-05-08 17:19 37.74285 24.53427 5019 ft 203 kts 118°
2026-05-08 17:19 37.73703 24.55062 5020 ft 204 kts 118°
2026-05-08 17:19 37.73114 24.56696 5020 ft 204 kts 119°
2026-05-08 17:20 37.72502 24.58323 5022 ft 204 kts 120°
2026-05-08 17:20 37.71887 24.59927 5020 ft 204 kts 120°
2026-05-08 17:20 37.71264 24.61542 5019 ft 204 kts 120°
2026-05-08 17:20 37.70637 24.63162 5023 ft 204 kts 120°
2026-05-08 17:21 37.70016 24.64762 5021 ft 205 kts 120°
2026-05-08 17:21 37.69387 24.66386 5022 ft 205 kts 120°
2026-05-08 17:21 37.68769 24.67990 5024 ft 205 kts 120°
2026-05-08 17:21 37.68156 24.69571 5026 ft 205 kts 120°
2026-05-08 17:22 37.67527 24.71189 5028 ft 205 kts 120°
2026-05-08 17:22 37.66917 24.72753 5024 ft 205 kts 120°
2026-05-08 17:22 37.66286 24.74369 5027 ft 205 kts 120°
2026-05-08 17:22 37.65653 24.75989 5024 ft 205 kts 120°
2026-05-08 17:23 37.65031 24.77586 5024 ft 205 kts 120°
2026-05-08 17:23 37.64399 24.79197 5025 ft 204 kts 120°
2026-05-08 17:23 37.63786 24.80824 5026 ft 206 kts 115°
2026-05-08 17:23 37.63349 24.82553 5029 ft 207 kts 109°
2026-05-08 17:24 37.62991 24.84323 5030 ft 208 kts 107°
2026-05-08 17:24 37.62661 24.86072 5028 ft 207 kts 107°
2026-05-08 17:24 37.62333 24.87852 5027 ft 208 kts 106°
2026-05-08 17:24 37.62007 24.89639 5028 ft 208 kts 106°
2026-05-08 17:25 37.61690 24.91394 5026 ft 208 kts 106°
2026-05-08 17:25 37.61367 24.93177 5031 ft 208 kts 106°
2026-05-08 17:25 37.61025 24.94952 5029 ft 207 kts 109°
2026-05-08 17:25 37.60597 24.96690 5028 ft 207 kts 112°
2026-05-08 17:26 37.60135 24.98413 5028 ft 207 kts 112°
2026-05-08 17:26 37.59661 25.00104 5028 ft 207 kts 113°
2026-05-08 17:26 37.59174 25.01818 5030 ft 206 kts 113°
2026-05-08 17:26 37.58691 25.03527 5027 ft 207 kts 113°
2026-05-08 17:27 37.58212 25.05212 5027 ft 206 kts 113°
2026-05-08 17:27 37.57722 25.06920 5029 ft 206 kts 113°
2026-05-08 17:27 37.57230 25.08625 5030 ft 206 kts 113°
2026-05-08 17:27 37.56731 25.10303 5031 ft 205 kts 117°
2026-05-08 17:28 37.55818 25.11628 5033 ft 200 kts 145°
2026-05-08 17:28 37.54689 25.12657 5034 ft 199 kts 149°
2026-05-08 17:28 37.53541 25.13611 5031 ft 199 kts 150°
2026-05-08 17:28 37.52367 25.14554 5029 ft 199 kts 151°
2026-05-08 17:29 37.51189 25.15485 4971 ft 199 kts 152°
2026-05-08 17:29 37.50050 25.16379 4720 ft 191 kts 152°
2026-05-08 17:29 37.48943 25.17251 4466 ft 184 kts 152°
2026-05-08 17:29 37.47867 25.18099 4215 ft 181 kts 152°
2026-05-08 17:30 37.46803 25.18938 3961 ft 179 kts 152°
2026-05-08 17:30 37.45790 25.19821 3705 ft 180 kts 142°
2026-05-08 17:30 37.45052 25.21121 3404 ft 187 kts 118°
2026-05-08 17:30 37.44769 25.22740 3159 ft 190 kts 95°
2026-05-08 17:31 37.44702 25.24356 2957 ft 184 kts 102°
2026-05-08 17:31 37.44443 25.25919 2715 ft 180 kts 109°
2026-05-08 17:31 37.44091 25.27416 2506 ft 176 kts 112°
2026-05-08 17:31 37.43679 25.28833 2307 ft 174 kts 115°
2026-05-08 17:32 37.43215 25.30244 2063 ft 171 kts 118°
2026-05-08 17:32 37.42684 25.31465 1872 ft 146 kts 128°
2026-05-08 17:32 37.42154 25.32461 1591 ft 131 kts 130°
2026-05-08 17:32 37.41636 25.33362 1245 ft 124 kts 127°
2026-05-08 17:33 37.41440 25.34226 1011 ft 111 kts 75°
2026-05-08 17:33 37.42097 25.34602 892 ft 126 kts 346°
2026-05-08 17:33 37.42959 25.34242 888 ft 133 kts 338°
2026-05-08 17:33 37.43813 25.33844 829 ft 128 kts 339°
2026-05-08 17:34 37.44462 25.33617 686 ft 102 kts 355°
2026-05-08 17:34 37.44918 25.34068 696 ft 95 kts 112°
2026-05-08 17:34 37.44365 25.34448 431 ft 96 kts 162°
2026-05-08 17:34 37.43874 25.34664 411 ft 76 kts 162°
2026-05-08 17:35 37.43518 25.34823 405 ft 38 kts 159°
2026-05-08 17:35 37.43422 25.34844 405 ft 8 kts 209°
2026-05-08 17:35 37.43407 25.34812 404 ft 7 kts 272°
2026-05-08 17:35 37.43428 25.34754 402 ft 8 kts 312°
2026-05-08 17:36 37.43473 25.34725 402 ft 6 kts 341°
2026-05-08 17:36 37.43510 25.34709 402 ft 7 kts 341°
2026-05-08 17:36 37.43577 25.34680 402 ft 13 kts 341°
2026-05-08 17:36 37.43627 25.34644 402 ft 5 kts 277°
2026-05-08 17:37 37.43630 25.34607 401 ft 2 kts 351°
2026-05-08 17:37 37.43632 25.34607 401 ft 0 kts